Location: Ponte Samoggia
(44.5667°N, 11.1333°E)
Time: 22:24:07
(UTC+00:00)

CZ-2D R/B - Pass Details

Date: 26 May 2022
Orbit: 791 x 845 km, 98.7° (Epoch: 29 June)

Event Time Altitude Azimuth Distance (km) Brightness Sun altitude
Rises 02:33:10 0° 359° (N) 3,381 6.0 -10.0°
Reaches altitude 10° 02:36:22 10° 340° (NNW) 2,432 4.9 -9.5°
Maximum altitude 02:39:36 16° 302° (WNW) 1,998 4.0 -9.1°
Drops below altitude 10° 02:42:48 10° 265° (W) 2,401 4.1 -8.7°
Enters shadow 02:43:49 - 257° (WSW) 2,662 4.3 -8.6°
